TimeEDT,TemperatureF,Dew PointF,Humidity,Sea Level PressureIn,VisibilityMPH,Wind Direction,Wind SpeedMPH,Gust SpeedMPH,PrecipitationIn,Events,Conditions,WindDirDegrees,DateUTC
12:53 AM,43.0,39.0,86,30.12,10.0,Calm,Calm,-,N/A,,Clear,0,2011-10-25 04:53:00
1:53 AM,43.0,39.0,86,30.12,10.0,South,3.5,-,N/A,,Scattered Clouds,190,2011-10-25 05:53:00
2:53 AM,44.6,39.2,81,30.13,10.0,Calm,Calm,-,N/A,,Clear,0,2011-10-25 06:53:00
3:53 AM,42.1,39.0,89,30.13,10.0,SSE,4.6,-,N/A,,Scattered Clouds,150,2011-10-25 07:53:00
4:53 AM,42.1,39.0,89,30.12,10.0,SSE,4.6,-,N/A,,Scattered Clouds,150,2011-10-25 08:53:00
5:53 AM,45.0,41.0,86,30.12,10.0,Calm,Calm,-,0.00,,Overcast,0,2011-10-25 09:53:00
6:53 AM,46.0,41.0,83,30.11,10.0,South,4.6,-,N/A,,Overcast,170,2011-10-25 10:53:00
7:53 AM,46.0,39.9,79,30.09,10.0,ESE,4.6,-,0.00,,Mostly Cloudy,110,2011-10-25 11:53:00
8:53 AM,46.9,41.0,80,30.11,10.0,East,4.6,-,N/A,,Overcast,90,2011-10-25 12:53:00
9:53 AM,46.9,42.1,83,30.09,9.0,ESE,4.6,-,0.00,Rain,Light Rain,110,2011-10-25 13:53:00
10:53 AM,46.9,42.1,83,30.10,10.0,NE,9.2,-,0.00,Rain,Light Rain,40,2011-10-25 14:53:00
11:53 AM,48.0,43.0,83,30.05,10.0,East,9.2,-,0.01,,Mostly Cloudy,90,2011-10-25 15:53:00
12:53 PM,51.1,43.0,74,29.99,10.0,ESE,11.5,-,0.00,,Mostly Cloudy,120,2011-10-25 16:53:00
1:53 PM,57.0,43.0,59,29.92,10.0,SE,10.4,-,N/A,,Mostly Cloudy,130,2011-10-25 17:53:00
2:53 PM,62.1,44.1,52,29.88,10.0,ENE,8.1,-,N/A,,Mostly Cloudy,70,2011-10-25 18:53:00
3:53 PM,62.1,46.0,56,29.87,10.0,NE,8.1,-,N/A,,Overcast,40,2011-10-25 19:53:00
4:53 PM,60.1,46.0,60,29.85,10.0,ENE,11.5,-,N/A,,Mostly Cloudy,60,2011-10-25 20:53:00
5:53 PM,55.0,46.0,72,29.87,10.0,NE,11.5,-,0.00,Rain,Light Rain,50,2011-10-25 21:53:00
6:53 PM,51.1,46.9,86,29.88,10.0,NE,12.7,21.9,0.01,Rain,Light Rain,40,2011-10-25 22:53:00
7:53 PM,48.9,46.0,90,29.84,10.0,East,15.0,-,0.02,,Overcast,100,2011-10-25 23:53:00
8:53 PM,48.2,46.4,93,29.81,10.0,East,9.2,-,N/A,,Overcast,90,2011-10-26 00:53:00
9:53 PM,48.9,46.0,90,29.81,10.0,ENE,8.1,-,N/A,,Overcast,60,2011-10-26 01:53:00
10:53 PM,48.9,45.0,86,29.80,9.0,ENE,6.9,-,N/A,,Overcast,60,2011-10-26 02:53:00
11:53 PM,48.0,45.0,89,29.80,7.0,NE,6.9,-,N/A,,Overcast,40,2011-10-26 03:53:00